Regional Weather Roundup
Issued by NWS

Home | Current Version | Previous Version | Text Only | Print | Product List | Glossary Off
Versions: 1 2 3 4 5 6 7 8 9 10 11 12 13 14 15 16 17 18 19 20 21 22 23 24 25 26 27 28

000
ASUS45 KSLC 260010
RWRUT

UTAH REGIONAL WEATHER ROUNDUP
NATIONAL WEATHER SERVICE SALT LAKE CITY UT
600 PM MDT SUN JUN 25 2017

UTZ001>011-023>025-260100-

NORTHERN UTAH

CITY           SKY/WX    TMP DP  RH WIND       PRES   REMARKS
BRIGHAM CITY   SUNNY     90  27  10 W5        30.12F
HILL AFB       SUNNY     87  41  19 N9        30.16F
LOGAN          SUNNY     90  40  17 N7        30.14F
OGDEN          SUNNY     89  40  17 NW7       30.12F
SALT LAKE CITY MOSUNNY   93  37  14 N9        30.09F
TOOELE VALLEY  SUNNY     88  45  22 N12       30.11F
WENDOVER         N/A     92  20   7 E10       30.10F
HEBER CITY     SUNNY     90  27  10 NW5       30.18F
WEST JORDAN    SUNNY     90  52  27 N3        30.13F

$$

UTZ011>015-024>027-260100-

CENTRAL/NORTHEAST UTAH

CITY           SKY/WX    TMP DP  RH WIND       PRES   REMARKS
PROVO AIRPORT  SUNNY     89  36  15 W6        30.12F
MOAB/CANYONLAN MOSUNNY   97  10   4 NW10      30.04F HX  90
DELTA          SUNNY     91  21   8 NW10      30.11F
PRICE          SUNNY     91  20   7 SW9       30.17F
VERNAL         SUNNY     88  33  14 S6        30.16F

$$

UTZ013>016-019>022-027-260100-

SOUTHERN UTAH

CITY           SKY/WX    TMP DP  RH WIND       PRES   REMARKS
BRYCE CANYON   PTSUNNY   79  29  16 W15       30.35F HAZE
CEDAR CITY     MOSUNNY   93  25   8 NE8       30.15F
MILFORD        MOSUNNY   96  20   6 S13       30.10F
ST GEORGE      CLEAR    105  29   7 NW10      29.90F HX  98
HANKSVILLE     MOSUNNY   99  25   7 W5        30.04F HX  92
BLANDING       SUNNY     93  24   8 NW12G23   30.20F

$$

REGIONAL REPORTS     COLORADO/ARIZONA

CITY           SKY/WX    TMP DP  RH WIND       PRES   REMARKS
CRAIG, CO      SUNNY     83  23  11 NW12      30.26F
GRAND JUNCTION SUNNY     94  26   9 W8        30.07F
RIFLE, CO      SUNNY     91  22   8 N13G20    30.15F
MONTROSE, CO   SUNNY     90  25   9 N9        30.16F
CORTEZ, CO     SUNNY     93  24   8 W13       30.14F
COLORADO CITY    N/A    100  32   9 W10G17    30.11F HX  94
PAGE, AZ       NOT AVBL
GRAND CANYON   CLOUDY    78  38  23 S12       30.31F
KINGMAN, AZ    SUNNY    105  34   8 SW17G24   29.96F HX  98
FLAGSTAFF, AZ  CLOUDY    67  52  58 N8        30.38F

$$

REGIONAL REPORTS    NEVADA/IDAHO/WYOMING

CITY           SKY/WX    TMP DP  RH WIND       PRES   REMARKS
LAS VEGAS, NV  MOSUNNY  111  16   3 SW9       29.80F HX 102
ELY, NY        PTSUNNY   89  32  13 SE9       30.20F
ELKO, NV       SUNNY     94  22   7 VRB7      30.10F
POCATELLO, ID  SUNNY     88  41  19 N10       30.16F
BURLEY, ID     SUNNY     88  38  17 N12       30.09F
FORT BRIDGER,    N/A     81  24  12 N5        30.37F
EVANSTON, WY   SUNNY     80  31  16 N10       30.34F
ROCK SPRINGS,  SUNNY     79  22  12 NW10      30.32F
KEMMERER, WY     N/A     77  30  18 W3        30.36F

$$




USA.gov is the U.S. government's official web portal to all federal, state and local government web resources and services.